| time (UTC) | temp F | wind direction | speed MPH | gust MPH | rain 1hr in | rain 24hr in | rain mn in | humidity % | barometer mb |
| 20260831000026 | 70 | 23 | 7.0 | 11.0 | 0.00 | 0.00 | 0.00 | 57 | 1020.3 |
| 20260830235026 | 70 | 0 | 7.0 | 11.0 | 0.00 | 0.00 | 0.00 | 58 | 1020.3 |
| 20260830234026 | 69 | 23 | 7.0 | 11.0 | 0.00 | 0.00 | 0.00 | 59 | 1020.4 |
| 20260830233046 | 69 | 23 | 7.0 | 13.0 | 0.00 | 0.00 | 0.00 | 60 | 1020.3 |
| 20260830232026 | 68 | 68 | 7.0 | 10.0 | 0.00 | 0.00 | 0.00 | 61 | 1020.4 |
| 20260830231026 | 68 | 45 | 6.0 | 9.0 | 0.00 | 0.00 | 0.00 | 60 | 1020.4 |
| 20260830230026 | 69 | 45 | 5.0 | 9.0 | 0.00 | 0.00 | 0.00 | 59 | 1020.4 |
| 20260830225026 | 69 | 23 | 7.0 | 12.0 | 0.00 | 0.00 | 0.00 | 58 | 1020.4 |
| 20260830224026 | 68 | 45 | 7.0 | 10.0 | 0.00 | 0.00 | 0.00 | 59 | 1020.3 |
| 20260830223026 | 69 | 45 | 5.0 | 10.0 | 0.00 | 0.00 | 0.00 | 58 | 1020.5 |
| 20260830222026 | 69 | 23 | 5.0 | 8.0 | 0.00 | 0.00 | 0.00 | 57 | 1020.4 |
| 20260830221028 | 70 | 68 | 4.0 | 7.0 | 0.00 | 0.00 | 0.00 | 57 | 1020.2 |
| 20260830220048 | 70 | 68 | 5.0 | 7.0 | 0.00 | 0.00 | 0.00 | 57 | 1020.1 |
| 20260830215028 | 70 | 45 | 6.0 | 8.0 | 0.00 | 0.00 | 0.00 | 57 | 1020.2 |
| 20260830214028 | 70 | 45 | 5.0 | 8.0 | 0.00 | 0.00 | 0.00 | 57 | 1020.1 |
| 20260830213028 | 70 | 45 | 4.0 | 8.0 | 0.00 | 0.00 | 0.00 | 57 | 1020.1 |
| 20260830212028 | 71 | 45 | 4.0 | 7.0 | 0.00 | 0.00 | 0.00 | 55 | 1020.1 |
| 20260830211028 | 72 | 23 | 4.0 | 7.0 | 0.00 | 0.00 | 0.00 | 52 | 1020.1 |
| 20260830210028 | 72 | 0 | 5.0 | 7.0 | 0.00 | 0.00 | 0.00 | 52 | 1020.0 |
| 20260830205028 | 72 | 23 | 4.0 | 7.0 | 0.00 | 0.00 | 0.00 | 52 | 1020.0 |
| 20260830204028 | 73 | 23 | 2.0 | 4.0 | 0.00 | 0.00 | 0.00 | 51 | 1020.0 |
| 20260830203028 | 73 | 0 | 2.0 | 4.0 | 0.00 | 0.00 | 0.00 | 50 | 1019.6 |
| 20260830202028 | 73 | 338 | 4.0 | 7.0 | 0.00 | 0.00 | 0.00 | 51 | 1019.6 |
| 20260830201048 | 74 | 315 | 3.0 | 6.0 | 0.00 | 0.00 | 0.00 | 50 | 1019.6 |
| 20260830200027 | 74 | 315 | 2.0 | 4.0 | 0.00 | 0.00 | 0.00 | 50 | 1019.4 |
| 20260830195027 | 75 | 315 | 1.0 | 2.0 | 0.00 | 0.00 | 0.00 | 49 | 1019.3 |
| 20260830194028 | 75 | 315 | 1.0 | 4.0 | 0.00 | 0.00 | 0.00 | 49 | 1019.2 |
| 20260830193028 | 76 | 248 | 3.0 | 6.0 | 0.00 | 0.00 | 0.00 | 48 | 1018.8 |
| 20260830192027 | 77 | 0 | 3.0 | 7.0 | 0.00 | 0.00 | 0.00 | 47 | 1018.7 |
| 20260830191027 | 77 | 248 | 2.0 | 4.0 | 0.00 | 0.00 | 0.00 | 47 | 1018.7 |
| 20260830190047 | 77 | 225 | 2.0 | 4.0 | 0.00 | 0.00 | 0.00 | 46 | 1018.3 |
| 20260830185048 | 77 | 270 | 3.0 | 4.0 | 0.00 | 0.00 | 0.00 | 46 | 1018.2 |
| 20260830184047 | 78 | 248 | 3.0 | 7.0 | 0.00 | 0.00 | 0.00 | 45 | 1018.1 |
| 20260830183027 | 79 | 225 | 4.0 | 8.0 | 0.00 | 0.00 | 0.00 | 44 | 1017.8 |
| 20260830182047 | 79 | 225 | 4.0 | 8.0 | 0.00 | 0.00 | 0.00 | 44 | 1017.7 |
| 20260830181027 | 79 | 225 | 4.0 | 10.0 | 0.00 | 0.00 | 0.00 | 44 | 1017.7 |
| 20260830180027 | 79 | 248 | 6.0 | 9.0 | 0.00 | 0.00 | 0.00 | 44 | 1017.7 |
| 20260830175027 | 81 | 225 | 6.0 | 11.0 | 0.00 | 0.00 | 0.00 | 43 | 1017.6 |
| 20260830174047 | 81 | 0 | 7.0 | 10.0 | 0.00 | 0.00 | 0.00 | 41 | 1017.7 |
| 20260830173027 | 82 | 225 | 7.0 | 12.0 | 0.00 | 0.00 | 0.00 | 40 | 1017.6 |
| 20260830172027 | 83 | 225 | 6.0 | 11.0 | 0.00 | 0.00 | 0.00 | 40 | 1017.6 |
| 20260830171027 | 82 | 0 | 7.0 | 13.0 | 0.00 | 0.00 | 0.00 | 41 | 1017.5 |
| 20260830170027 | 82 | 0 | 9.0 | 14.0 | 0.00 | 0.00 | 0.00 | 41 | 1017.4 |
| 20260830165047 | 83 | 0 | 7.0 | 13.0 | 0.00 | 0.00 | 0.00 | 41 | 1017.5 |
| 20260830164027 | 83 | 0 | 9.0 | 17.0 | 0.00 | 0.00 | 0.00 | 41 | 1017.5 |
| 20260830163047 | 83 | 0 | 11.0 | 19.0 | 0.00 | 0.00 | 0.00 | 41 | 1017.4 |
| 20260830162027 | 83 | 0 | 8.0 | 13.0 | 0.00 | 0.00 | 0.00 | 42 | 1017.4 |
| 20260830161027 | 84 | 158 | 8.0 | 17.0 | 0.00 | 0.00 | 0.00 | 42 | 1017.5 |
| 20260830160027 | 84 | 0 | 10.0 | 17.0 | 0.00 | 0.00 | 0.00 | 43 | 1017.4 |
| 20260830155027 | 84 | 0 | 11.0 | 18.0 | 0.00 | 0.00 | 0.00 | 43 | 1017.4 |
| 20260830154027 | 85 | 0 | 10.0 | 23.0 | 0.00 | 0.00 | 0.00 | 40 | 1017.5 |
| 20260830153027 | 86 | 0 | 10.0 | 18.0 | 0.00 | 0.00 | 0.00 | 37 | 1017.4 |
| 20260830152027 | 86 | 180 | 11.0 | 20.0 | 0.00 | 0.00 | 0.00 | 37 | 1017.5 |
| 20260830151027 | 86 | 0 | 7.0 | 16.0 | 0.00 | 0.00 | 0.00 | 33 | 1017.3 |
| 20260830150027 | 86 | 0 | 7.0 | 14.0 | 0.00 | 0.00 | 0.00 | 35 | 1017.6 |
| 20260830145027 | 86 | 158 | 8.0 | 18.0 | 0.00 | 0.00 | 0.00 | 35 | 1017.7 |
| 20260830144047 | 86 | 0 | 8.0 | 23.0 | 0.00 | 0.00 | 0.00 | 34 | 1017.8 |
| 20260830143027 | 86 | 0 | 8.0 | 16.0 | 0.00 | 0.00 | 0.00 | 34 | 1017.7 |
| 20260830142047 | 85 | 0 | 10.0 | 17.0 | 0.00 | 0.00 | 0.00 | 35 | 1017.9 |
| 20260830141027 | 85 | 0 | 8.0 | 17.0 | 0.00 | 0.00 | 0.00 | 35 | 1018.1 |
| 20260830140028 | 85 | 158 | 8.0 | 16.0 | 0.00 | 0.00 | 0.00 | 35 | 1018.3 |
| 20260830135047 | 85 | 180 | 9.0 | 19.0 | 0.00 | 0.00 | 0.00 | 35 | 1018.4 |
| 20260830134027 | 85 | 225 | 8.0 | 20.0 | 0.00 | 0.00 | 0.00 | 35 | 1018.5 |
| 20260830133026 | 85 | 0 | 8.0 | 17.0 | 0.00 | 0.00 | 0.00 | 36 | 1018.6 |
| 20260830132026 | 84 | 203 | 10.0 | 22.0 | 0.00 | 0.00 | 0.00 | 37 | 1018.7 |
| 20260830131026 | 84 | 203 | 9.0 | 21.0 | 0.00 | 0.00 | 0.00 | 36 | 1018.9 |
| 20260830130107 | 84 | 158 | 5.0 | 12.0 | 0.00 | 0.00 | 0.00 | 36 | 1018.9 |
| 20260830125026 | 84 | 0 | 5.0 | 12.0 | 0.00 | 0.00 | 0.00 | 36 | 1019.1 |
| 20260830123026 | 82 | 158 | 8.0 | 17.0 | 0.00 | 0.00 | 0.00 | 37 | 1019.3 |
| 20260830122026 | 82 | 158 | 10.0 | 17.0 | 0.00 | 0.00 | 0.00 | 37 | 1019.5 |
| 20260830121026 | 83 | 158 | 8.0 | 17.0 | 0.00 | 0.00 | 0.00 | 37 | 1019.6 |
| 20260830120046 | 82 | 0 | 6.0 | 14.0 | 0.00 | 0.00 | 0.00 | 38 | 1019.7 |
| 20260830115026 | 81 | 158 | 7.0 | 13.0 | 0.00 | 0.00 | 0.00 | 37 | 1019.8 |
| 20260830114046 | 82 | 135 | 7.0 | 14.0 | 0.00 | 0.00 | 0.00 | 40 | 1019.9 |
| 20260830113026 | 81 | 158 | 6.0 | 12.0 | 0.00 | 0.00 | 0.00 | 41 | 1020.1 |
| 20260830112026 | 81 | 158 | 6.0 | 15.0 | 0.00 | 0.00 | 0.00 | 41 | 1020.2 |
| 20260830111026 | 80 | 158 | 6.0 | 12.0 | 0.00 | 0.00 | 0.00 | 42 | 1020.1 |
| 20260830110026 | 80 | 180 | 5.0 | 11.0 | 0.00 | 0.00 | 0.00 | 43 | 1020.3 |
| 20260830105026 | 79 | 225 | 5.0 | 11.0 | 0.00 | 0.00 | 0.00 | 43 | 1020.3 |
| 20260830104027 | 79 | 180 | 5.0 | 10.0 | 0.00 | 0.00 | 0.00 | 44 | 1020.5 |
| 20260830103046 | 79 | 203 | 6.0 | 13.0 | 0.00 | 0.00 | 0.00 | 44 | 1020.6 |
| 20260830102026 | 79 | 158 | 5.0 | 10.0 | 0.00 | 0.00 | 0.00 | 45 | 1020.6 |
| 20260830101026 | 79 | 158 | 5.0 | 9.0 | 0.00 | 0.00 | 0.00 | 45 | 1020.7 |
| 20260830100106 | 79 | 158 | 4.0 | 7.0 | 0.00 | 0.00 | 0.00 | 46 | 1020.9 |
| 20260830095026 | 78 | 158 | 3.0 | 9.0 | 0.00 | 0.00 | 0.00 | 46 | 1020.9 |
| 20260830094026 | 78 | 135 | 3.0 | 10.0 | 0.00 | 0.00 | 0.00 | 47 | 1021.1 |
| 20260830093046 | 78 | 135 | 2.0 | 7.0 | 0.00 | 0.00 | 0.00 | 48 | 1021.1 |
| 20260830092026 | 77 | 90 | 3.0 | 8.0 | 0.00 | 0.00 | 0.00 | 47 | 1021.1 |
| 20260830091026 | 77 | 158 | 2.0 | 5.0 | 0.00 | 0.00 | 0.00 | 48 | 1021.2 |
| 20260830090026 | 76 | 158 | 4.0 | 7.0 | 0.00 | 0.00 | 0.00 | 49 | 1021.2 |
| 20260830085046 | 76 | 180 | 3.0 | 5.0 | 0.00 | 0.00 | 0.00 | 50 | 1021.2 |
| 20260830084048 | 76 | 135 | 3.0 | 9.0 | 0.00 | 0.00 | 0.00 | 49 | 1021.2 |
| 20260830083028 | 75 | 68 | 2.0 | 5.0 | 0.00 | 0.00 | 0.00 | 53 | 1021.2 |
| 20260830082048 | 74 | 90 | 2.0 | 6.0 | 0.00 | 0.00 | 0.00 | 56 | 1021.1 |
| 20260830081028 | 73 | 68 | 3.0 | 7.0 | 0.00 | 0.00 | 0.00 | 59 | 1021.1 |
| 20260830080108 | 72 | 68 | 5.0 | 8.0 | 0.00 | 0.00 | 0.00 | 61 | 1021.2 |
| 20260830075028 | 71 | 90 | 3.0 | 7.0 | 0.00 | 0.00 | 0.00 | 61 | 1021.0 |
| 20260830074027 | 70 | 45 | 6.0 | 9.0 | 0.00 | 0.00 | 0.00 | 63 | 1020.9 |
| 20260830073027 | 70 | 45 | 6.0 | 9.0 | 0.00 | 0.00 | 0.00 | 63 | 1021.1 |
| 20260830072028 | 69 | 45 | 6.0 | 9.0 | 0.00 | 0.00 | 0.00 | 64 | 1020.9 |
| 20260830071028 | 67 | 23 | 7.0 | 10.0 | 0.00 | 0.00 | 0.00 | 66 | 1020.7 |
| 20260830070028 | 66 | 45 | 8.0 | 12.0 | 0.00 | 0.00 | 0.00 | 68 | 1020.7 |
| 20260830065027 | 65 | 45 | 6.0 | 12.0 | 0.00 | 0.00 | 0.00 | 69 | 1020.7 |
| 20260830064027 | 65 | 45 | 6.0 | 9.0 | 0.00 | 0.00 | 0.00 | 70 | 1020.6 |
| 20260830063027 | 64 | 45 | 6.0 | 8.0 | 0.00 | 0.00 | 0.00 | 71 | 1020.5 |
| 20260830062027 | 64 | 23 | 7.0 | 10.0 | 0.00 | 0.00 | 0.00 | 70 | 1020.5 |
| 20260830061027 | 64 | 23 | 8.0 | 10.0 | 0.00 | 0.00 | 0.00 | 72 | 1020.3 |
| 20260830060027 | 63 | 45 | 8.0 | 11.0 | 0.00 | 0.00 | 0.00 | 72 | 1020.3 |
| 20260830055027 | 63 | 45 | 6.0 | 10.0 | 0.00 | 0.00 | 0.00 | 72 | 1020.3 |
| 20260830054027 | 63 | 45 | 7.0 | 11.0 | 0.00 | 0.00 | 0.00 | 72 | 1020.2 |
| 20260830053028 | 63 | 45 | 6.0 | 10.0 | 0.00 | 0.00 | 0.00 | 71 | 1020.2 |
| 20260830052047 | 63 | 45 | 7.0 | 11.0 | 0.00 | 0.00 | 0.00 | 72 | 1020.2 |
| 20260830051047 | 63 | 45 | 6.0 | 11.0 | 0.00 | 0.00 | 0.00 | 71 | 1020.2 |
| 20260830050027 | 63 | 45 | 7.0 | 10.0 | 0.00 | 0.00 | 0.00 | 72 | 1020.2 |
| 20260830045027 | 63 | 68 | 7.0 | 10.0 | 0.00 | 0.00 | 0.00 | 72 | 1020.1 |
| 20260830044027 | 63 | 68 | 5.0 | 10.0 | 0.00 | 0.00 | 0.00 | 72 | 1020.2 |
| 20260830043027 | 63 | 68 | 4.0 | 8.0 | 0.00 | 0.00 | 0.00 | 72 | 1020.4 |
| 20260830042027 | 64 | 45 | 4.0 | 7.0 | 0.00 | 0.00 | 0.00 | 71 | 1020.4 |
| 20260830041028 | 64 | 23 | 5.0 | 9.0 | 0.00 | 0.00 | 0.00 | 71 | 1020.4 |
| 20260830040047 | 63 | 45 | 5.0 | 8.0 | 0.00 | 0.00 | 0.00 | 72 | 1020.5 |
| 20260830035027 | 63 | 23 | 6.0 | 9.0 | 0.00 | 0.00 | 0.00 | 72 | 1020.4 |
| 20260830034107 | 63 | 45 | 7.0 | 12.0 | 0.00 | 0.00 | 0.00 | 71 | 1020.4 |
| 20260830033027 | 64 | 45 | 7.0 | 10.0 | 0.00 | 0.00 | 0.00 | 71 | 1020.4 |
| 20260830032047 | 63 | 68 | 7.0 | 11.0 | 0.00 | 0.00 | 0.00 | 71 | 1020.4 |
| 20260830031027 | 64 | 45 | 5.0 | 9.0 | 0.00 | 0.00 | 0.00 | 71 | 1020.5 |
| 20260830030027 | 64 | 45 | 6.0 | 10.0 | 0.00 | 0.00 | 0.00 | 70 | 1020.5 |
| 20260830025027 | 64 | 45 | 6.0 | 9.0 | 0.00 | 0.00 | 0.00 | 70 | 1020.6 |
| 20260830024027 | 64 | 45 | 6.0 | 9.0 | 0.00 | 0.00 | 0.00 | 70 | 1020.6 |
| 20260830023027 | 64 | 68 | 6.0 | 10.0 | 0.00 | 0.00 | 0.00 | 70 | 1020.6 |
| 20260830022027 | 64 | 68 | 7.0 | 10.0 | 0.00 | 0.00 | 0.00 | 69 | 1020.6 |
| 20260830021027 | 64 | 45 | 6.0 | 9.0 | 0.00 | 0.00 | 0.00 | 69 | 1020.7 |
| 20260830020047 | 64 | 45 | 4.0 | 8.0 | 0.00 | 0.00 | 0.00 | 69 | 1020.7 |
| 20260830015026 | 65 | 45 | 4.0 | 7.0 | 0.00 | 0.00 | 0.00 | 68 | 1020.8 |
| 20260830014048 | 65 | 23 | 6.0 | 9.0 | 0.00 | 0.00 | 0.00 | 67 | 1020.8 |
| 20260830013027 | 64 | 68 | 7.0 | 11.0 | 0.00 | 0.00 | 0.00 | 69 | 1020.8 |
| 20260830012026 | 65 | 68 | 7.0 | 13.0 | 0.00 | 0.00 | 0.00 | 68 | 1021.0 |
| 20260830011026 | 66 | 45 | 4.0 | 8.0 | 0.00 | 0.00 | 0.00 | 65 | 1021.1 |
| 20260830010026 | 67 | 0 | 4.0 | 7.0 | 0.00 | 0.00 | 0.00 | 63 | 1021.0 |
| 20260830005026 | 66 | 23 | 5.0 | 8.0 | 0.00 | 0.00 | 0.00 | 66 | 1021.0 |
| 20260830004026 | 66 | 0 | 4.0 | 10.0 | 0.00 | 0.00 | 0.00 | 66 | 1021.0 |
| 20260830003026 | 66 | 23 | 6.0 | 10.0 | 0.00 | 0.00 | 0.00 | 67 | 1021.2 |
| 20260830002026 | 66 | 45 | 8.0 | 15.0 | 0.00 | 0.00 | 0.00 | 66 | 1021.1 |
| 20260830001026 | 68 | 45 | 5.0 | 9.0 | 0.00 | 0.00 | 0.00 | 64 | 1021.2 |